Wind_Speed
5 5 6 6 5 5 5 4 5 5 5 4 4 4 4 4 4 4 4 4 4 5 6 6 6 5 6 6 6 6 6 5 5 4 4 4 5 5 5 4 5 5 5 5 6 6 6 6 6
6 6 6 6 6 5 5 5 5 5 5 4 4 5 4 4 4 5 5 5 5 5 6 6 6 6 7 7 7 7 6 6 5 5 5 6 5 6 6 6 6 6 6 6 7 6 5 5 5
6 7 6 7 6 6 6 5 4 5 5 5 5 5 5 4 4 5 5 6 6 6 6 6 6 7 7 8 8 7 7 7 7 6 6 6 6 6 6 6 6 6 7 7 8 7 6 6 5
7 7 6 6 7 7 7 6 5 5 6 5 5 5 5 5 5 5 6 6 6 6 6 7 7 7 8 8 8 8 8 7 8 8 7 7 7 6 6 6 7 7 7 7 8 8 7 7 6
7 8 7 7 7 7 7 7 6 6 6 6 6 6 6 5 6 6 7 6 6 6 7 7 8 9 8 9 9 9 9 8 8 8 8 8 7 7 7 7 8 8 8 7 8 8 8 8 7
8 8 7 7 7 8 8 7 7 6 6 6 6 6 7 6 7 7 7 7 6 7 8 7 8 8 8 9 9 8 8 8 8 8 8 8 9 9 9 8 9 9 9 9 8 9 8 8 8
8 8 8 8 8 9 9 8 7 7 7 7 6 6 6 6 7 7 7 7 7 7 7 7 7 7 6 7 7 8 8 8 8 9 9 9 10 10 10 10 10 10 10 10 10 9 10 9 9
8 9 9 9 9 9 9 8 8 8 8 8 7 7 7 7 7 7 7 7 7 7 7 7 7 6 6 6 7 8 8 9 9 9 10 10 11 11 11 10 10 10 10 11 11 11 11 11 10
9 9 9 9 9 9 9 9 9 9 9 8 8 8 8 8 8 7 7 7 7 8 7 7 7 7 7 7 8 8 8 9 9 10 10 11 11 12 12 11 11 11 11 11 12 12 12 11 11
9 9 9 9 9 9 9 9 9 9 9 8 8 8 8 8 8 8 7 7 7 7 7 7 8 7 7 8 8 8 8 9 10 11 11 12 12 12 11 12 12 12 12 11 11 12 12 12 12
8 8 9 9 8 9 9 9 9 9 9 8 9 9 9 8 8 8 8 9 9 9 9 9 9 9 9 8 8 9 9 10 11 11 12 12 13 12 12 12 12 12 12 12 12 12 13 12 12
8 8 9 9 9 9 9 9 10 9 9 9 9 9 10 10 9 9 10 10 10 10 10 10 10 10 9 9 8 9 10 10 11 11 12 13 13 13 12 12 13 13 13 13 13 13 13 13 13
7 8 8 9 9 9 9 10 9 9 9 9 10 10 10 11 11 11 11 10 10 10 10 10 10 10 10 9 9 9 9 10 10 11 12 12 13 13 12 12 13 13 13 14 13 13 14 14 13
8 8 8 8 9 9 9 10 10 9 9 10 10 10 10 10 11 11 11 10 10 10 11 11 11 11 10 10 10 10 10 10 10 10 10 11 13 12 12 12 12 13 14 14 14 14 14 14 14
8 8 8 8 8 9 9 9 9 9 9 9 9 10 10 10 10 11 11 11 11 11 11 11 12 12 12 11 11 11 11 11 10 10 11 11 12 12 12 13 13 14 15 15 15 15 15 15 15
9 9 9 9 9 9 9 9 9 9 9 10 10 10 10 10 10 11 11 12 11 11 11 11 12 12 12 12 12 12 12 12 11 11 11 12 12 12 12 13 14 14 15 15 15 16 16 16 16
10 10 10 10 10 10 10 9 10 9 10 9 9 10 11 11 11 11 11 12 12 11 11 11 12 12 11 12 12 12 13 13 12 11 12 12 12 12 13 13 13 14 14 15 15 15 15 15 15
10 10 10 10 10 10 10 10 10 10 11 11 10 10 11 11 12 12 12 12 12 12 12 12 12 12 12 12 12 13 12 12 12 12 12 12 12 12 13 13 12 13 13 14 14 14 15 15 15
10 11 11 10 11 11 11 10 10 11 11 12 12 12 12 12 12 12 12 13 13 13 13 13 12 12 12 12 12 12 12 12 12 12 12 12 13 13 13 13 13 13 13 14 14 15 15 14 15
11 11 11 11 11 12 12 12 12 11 11 12 12 13 13 13 13 13 12 13 13 13 13 13 13 12 12 12 12 13 12 13 12 13 12 12 13 13 13 13 13 13 14 14 15 15 15 15 15
12 12 12 12 12 13 13 12 12 12 12 12 12 12 12 12 12 12 12 12 13 13 14 14 14 14 13 13 13 13 13 13 13 13 13 14 14 13 13 13 13 14 14 14 15 15 15 15 16
13 12 13 13 14 14 13 13 12 11 12 12 12 13 12 12 13 13 13 13 13 13 14 14 14 14 14 14 14 14 14 14 15 15 15 15 15 14 14 14 14 15 15 15 15 15 16 16 17
14 14 14 14 15 15 14 14 12 12 12 12 13 13 13 13 14 13 13 13 14 14 15 14 14 14 14 14 14 15 15 15 16 16 16 16 16 16 15 15 15 15 15 16 16 16 17 17 18
15 15 15 15 16 16 14 15 13 12 12 13 13 14 15 15 15 15 15 15 15 15 15 15 15 15 14 14 15 15 15 16 16 17 17 16 16 17 16 17 17 16 16 17 17 17 18 18 18
16 16 16 17 16 16 14 15 13 12 13 14 14 15 16 16 16 16 15 16 16 16 16 17 16 16 16 16 16 17 17 17 17 17 17 17 18 18 18 18 18 18 18 18 19 19 20 20 20
16 17 17 18 17 16 15 15 13 13 14 14 15 16 17 17 17 16 16 16 16 17 17 17 17 17 17 17 18 18 18 18 18 18 18 19 19 19 19 20 20 19 19 20 21 21 21 21 22
17 17 17 18 18 18 17 16 15 15 15 15 16 17 17 17 17 17 18 18 18 18 18 18 18 19 19 19 19 18 19 19 20 20 20 20 20 20 20 20 20 20 21 21 22 22 23 23 23
17 17 18 18 19 19 18 17 17 16 16 16 17 17 17 17 17 18 18 19 19 18 18 18 19 20 19 19 19 19 20 20 21 21 22 21 21 21 21 21 21 21 22 22 23 23 24 24 25
18 18 19 19 20 21 21 19 18 17 17 16 16 17 18 18 18 18 18 19 19 19 20 20 20 20 20 20 20 20 21 21 21 22 22 22 22 22 22 22 23 23 23 24 24 25 25 25 25
19 19 19 20 21 22 23 20 19 18 18 18 18 17 17 18 18 18 18 19 20 20 20 20 21 20 20 20 21 21 21 22 22 23 23 23 23 24 24 25 25 25 25 25 25 25 25 26 26
Wind_Direction
229 233 243 247 248 239 233 232 225 227 224 219 225 224 227 228 235 240 242 241 242 248 255 256 254 257 263 262 259 262 268 269 271 263 266 275 271 266 269 266 269 270 270 274 279 287 297 294 286
235 241 245 249 246 243 241 237 226 227 225 221 230 232 232 235 237 244 252 254 255 253 256 254 256 261 265 264 263 262 266 268 272 270 267 270 278 274 270 265 270 271 270 273 276 280 287 289 284
240 244 244 248 244 244 245 243 235 232 230 226 229 232 237 245 247 252 261 264 263 261 254 255 257 260 265 264 263 263 264 267 268 270 268 270 273 272 267 263 269 272 274 275 274 276 278 279 278
247 247 246 245 241 242 246 246 235 234 234 236 242 244 242 253 255 258 263 264 266 266 264 264 263 266 263 262 260 260 263 264 265 268 268 270 268 267 267 261 264 272 277 277 276 273 275 273 273
252 248 253 254 250 247 248 246 243 243 238 237 243 245 246 253 259 263 266 270 268 269 274 277 271 271 261 257 258 260 260 261 262 265 264 265 262 261 266 264 265 271 276 277 277 274 271 269 268
265 261 261 261 257 253 248 246 247 249 247 242 245 248 248 254 262 265 268 272 271 275 279 278 277 272 263 256 253 258 260 261 261 261 262 264 264 263 265 266 267 271 275 276 274 274 268 265 266
264 264 265 262 257 257 255 251 250 252 256 255 255 259 261 264 269 271 268 268 270 276 282 279 279 271 261 253 252 256 259 260 263 263 265 265 264 263 266 266 266 268 270 271 273 273 269 265 268
266 261 261 258 255 254 253 252 253 253 258 257 259 260 264 267 270 271 268 269 271 274 279 279 278 272 260 256 256 262 264 262 262 261 264 265 263 261 265 266 267 266 268 271 273 271 270 268 268
267 263 263 262 259 258 256 254 254 255 254 256 258 261 264 264 266 267 266 269 270 268 272 275 277 275 269 265 261 268 268 265 264 263 265 266 266 265 263 267 269 269 270 273 274 273 270 271 272
272 270 265 259 255 253 252 252 253 254 253 257 261 263 262 265 265 265 264 265 267 269 272 274 270 267 269 269 271 269 266 265 264 263 265 268 269 267 264 265 266 268 271 272 273 274 272 272 274
276 269 262 256 252 249 250 254 254 255 255 259 261 260 262 264 264 265 265 266 268 268 270 274 273 268 264 264 268 268 270 270 267 265 267 269 267 265 265 266 265 267 268 269 271 273 276 277 276
275 266 258 254 252 247 249 254 257 259 260 262 260 257 259 261 264 264 264 266 267 268 267 269 272 274 268 266 268 271 272 271 269 271 272 272 270 268 266 266 266 265 266 266 267 271 274 275 276
274 266 259 254 251 250 252 254 257 258 260 261 259 259 261 263 264 263 264 265 266 266 266 265 266 270 271 272 273 275 276 277 274 272 271 271 271 269 266 266 267 266 267 266 267 270 272 275 277
274 265 259 255 251 249 250 254 258 258 260 261 261 263 266 267 267 266 265 266 264 262 264 264 265 266 269 271 273 274 274 275 277 278 276 274 272 271 269 268 269 269 271 270 269 271 274 276 276
271 264 257 254 252 249 250 254 259 260 261 260 262 266 268 270 269 267 265 264 263 262 263 264 266 266 269 272 272 271 273 273 275 279 282 280 277 274 273 272 271 270 270 271 272 271 272 274 274
270 263 257 256 256 254 254 256 259 261 261 259 261 264 267 269 268 267 264 262 261 261 263 263 265 266 268 269 270 270 271 270 269 272 278 280 281 277 275 272 272 272 271 270 270 271 271 272 272
268 265 260 259 260 259 257 258 259 262 264 266 264 263 262 262 264 265 263 262 261 262 263 262 263 265 268 270 269 270 272 270 267 269 274 278 280 281 281 277 276 275 273 271 270 270 270 270 271
272 268 263 262 261 261 261 262 261 262 265 272 271 267 265 262 262 262 262 261 261 260 261 261 262 262 264 267 269 270 272 273 271 271 273 277 281 282 282 279 278 276 276 275 274 273 271 271 273
270 269 267 267 266 264 263 264 263 263 267 271 272 271 270 267 264 263 262 263 263 262 260 259 258 261 265 267 268 268 270 272 274 275 277 278 280 281 280 279 278 277 276 275 274 274 272 271 273
271 270 269 268 266 266 265 265 266 267 269 273 273 272 271 267 265 263 262 262 263 261 259 259 259 260 263 266 269 267 268 270 270 272 277 277 280 281 279 280 279 277 277 276 274 274 272 273 274
270 271 270 269 268 269 268 265 267 269 270 272 271 268 268 268 265 261 261 262 264 263 260 259 259 260 262 266 268 269 266 269 268 270 274 276 280 281 278 278 277 276 275 275 273 273 274 274 275
269 269 269 269 269 269 271 269 266 271 271 270 268 267 267 266 265 262 263 264 266 267 265 265 264 263 265 269 271 274 271 270 272 273 273 277 279 281 280 276 275 276 276 275 274 273 275 277 277
270 270 269 269 270 270 273 274 270 272 272 270 267 266 264 264 265 265 264 266 267 268 265 266 268 267 269 269 271 275 274 271 272 273 274 276 277 277 278 276 273 273 274 274 273 274 277 278 277
269 270 270 270 270 270 273 277 276 277 276 273 268 266 265 264 267 270 267 267 267 266 264 264 268 269 270 270 271 274 277 275 272 273 274 275 276 277 278 277 275 274 275 277 276 277 277 277 277
267 269 268 269 270 272 274 276 277 277 277 277 273 268 266 267 268 270 270 268 268 268 266 266 267 268 270 272 273 275 277 276 273 274 275 276 276 276 277 277 276 276 275 276 276 277 277 277 277
266 268 269 270 271 274 275 276 277 277 277 276 274 270 268 270 271 272 273 270 270 270 268 269 270 271 271 273 274 276 277 276 275 274 274 275 277 276 277 278 278 277 277 277 277 276 277 278 278
266 266 268 268 268 269 272 272 273 277 279 276 274 272 271 271 272 273 273 272 272 272 271 269 270 271 272 273 274 273 274 274 275 275 276 276 277 277 278 279 279 280 279 278 278 278 277 277 279
265 266 265 264 266 268 271 272 275 277 278 278 275 273 271 271 273 272 272 273 272 272 270 268 269 272 273 273 272 271 274 275 276 275 275 275 276 276 276 277 277 278 280 280 281 281 280 280 281
264 265 266 266 267 269 272 274 278 279 278 277 275 274 272 272 273 273 274 274 271 269 270 270 271 273 273 272 273 273 274 274 275 275 276 276 275 274 275 275 276 279 280 282 282 284 283 283 283
266 264 265 266 269 271 274 274 276 279 278 276 275 274 274 274 274 273 272 272 271 270 270 270 271 272 272 273 274 274 275 275 276 277 278 276 275 273 273 275 278 280 282 282 283 283 283 283 283
Height
5848 5849 5850 5851 5852 5851 5851 5852 5853 5854 5854 5855 5855 5856 5857 5858 5859 5862 5861 5860 5860 5860 5860 5861 5861 5861 5862 5862 5862 5862 5863 5863 5863 5863 5863 5864 5864 5864 5865 5865 5866 5866 5866 5866 5866 5865 5864 5861 5857
5848 5848 5850 5850 5850 5850 5851 5851 5852 5853 5854 5854 5855 5856 5856 5857 5857 5858 5858 5859 5859 5859 5859 5860 5860 5860 5860 5861 5861 5861 5861 5862 5862 5862 5862 5863 5863 5863 5864 5864 5864 5864 5865 5865 5865 5864 5862 5860 5858
5847 5848 5849 5849 5849 5850 5850 5851 5852 5853 5853 5854 5855 5855 5856 5856 5856 5857 5857 5857 5858 5858 5858 5858 5858 5858 5858 5859 5859 5859 5860 5860 5860 5861 5861 5862 5862 5862 5863 5863 5863 5863 5863 5863 5863 5863 5862 5861 5859
5847 5848 5848 5848 5848 5849 5850 5850 5851 5852 5853 5854 5854 5855 5855 5855 5856 5856 5856 5856 5857 5857 5857 5857 5857 5856 5856 5856 5857 5857 5858 5859 5859 5859 5860 5860 5861 5861 5861 5862 5862 5862 5862 5862 5862 5862 5862 5861 5860
5846 5846 5847 5847 5847 5848 5849 5850 5851 5851 5852 5853 5853 5854 5854 5854 5855 5855 5855 5855 5856 5856 5856 5855 5855 5854 5854 5854 5855 5856 5856 5857 5858 5858 5858 5859 5859 5860 5860 5860 5860 5860 5861 5861 5860 5860 5860 5860 5859
5845 5846 5846 5846 5847 5847 5848 5849 5850 5851 5851 5852 5852 5853 5853 5853 5854 5854 5854 5854 5854 5855 5854 5854 5853 5851 5850 5851 5852 5854 5854 5855 5856 5856 5857 5857 5857 5858 5858 5859 5859 5859 5859 5859 5859 5859 5859 5859 5859
5845 5845 5845 5846 5846 5846 5847 5848 5849 5849 5850 5851 5851 5852 5852 5852 5852 5853 5853 5853 5853 5853 5853 5852 5852 5850 5848 5849 5851 5852 5853 5854 5854 5855 5855 5856 5856 5856 5856 5856 5857 5857 5857 5857 5857 5857 5857 5857 5857
5843 5844 5843 5844 5845 5845 5846 5846 5847 5848 5848 5849 5850 5850 5851 5851 5851 5851 5851 5851 5851 5851 5851 5851 5851 5850 5849 5849 5850 5851 5852 5852 5853 5853 5853 5854 5854 5854 5854 5854 5854 5854 5855 5855 5855 5855 5855 5855 5855
5841 5843 5842 5843 5843 5844 5844 5845 5845 5846 5847 5847 5848 5849 5849 5849 5849 5849 5850 5850 5850 5850 5850 5850 5849 5849 5849 5849 5850 5850 5850 5851 5851 5851 5852 5852 5852 5852 5852 5852 5852 5852 5852 5852 5853 5853 5853 5853 5853
5840 5840 5840 5841 5842 5842 5842 5843 5843 5844 5845 5845 5846 5846 5847 5847 5847 5848 5848 5848 5849 5849 5849 5848 5848 5848 5848 5848 5848 5849 5849 5849 5849 5849 5849 5849 5849 5850 5850 5850 5850 5850 5850 5850 5850 5850 5850 5850 5851
5837 5838 5838 5838 5839 5840 5840 5841 5841 5842 5843 5843 5844 5844 5845 5845 5845 5846 5846 5847 5847 5847 5847 5847 5846 5846 5846 5847 5847 5847 5847 5847 5847 5847 5847 5847 5847 5847 5847 5847 5847 5847 5848 5848 5848 5848 5848 5848 5848
5836 5836 5836 5836 5837 5838 5838 5839 5839 5840 5841 5841 5841 5842 5843 5843 5843 5844 5844 5845 5845 5845 5845 5845 5844 5844 5844 5844 5844 5845 5845 5845 5845 5845 5844 5844 5844 5844 5844 5845 5844 5845 5845 5845 5845 5845 5845 5845 5845
5834 5834 5834 5834 5835 5836 5837 5837 5838 5838 5838 5839 5839 5839 5840 5840 5841 5841 5842 5842 5842 5842 5842 5842 5842 5842 5842 5842 5842 5842 5842 5842 5842 5842 5842 5842 5841 5841 5841 5841 5841 5841 5842 5842 5842 5842 5842 5842 5842
5832 5832 5832 5833 5833 5834 5835 5835 5836 5836 5836 5837 5837 5837 5838 5838 5838 5838 5839 5839 5839 5840 5840 5840 5840 5840 5840 5840 5840 5840 5840 5840 5840 5840 5839 5839 5839 5838 5838 5838 5838 5838 5838 5839 5839 5839 5839 5839 5839
5830 5831 5831 5832 5832 5832 5833 5834 5834 5834 5834 5835 5835 5835 5835 5835 5835 5835 5836 5836 5836 5837 5837 5837 5837 5837 5837 5837 5837 5838 5837 5837 5837 5837 5837 5836 5836 5836 5835 5835 5835 5835 5835 5835 5835 5835 5835 5835 5835
5829 5829 5830 5830 5830 5831 5833 5833 5832 5832 5832 5832 5832 5832 5832 5832 5832 5832 5833 5833 5834 5834 5834 5834 5834 5834 5834 5834 5834 5835 5835 5835 5834 5834 5834 5833 5833 5832 5832 5832 5831 5831 5831 5831 5831 5831 5832 5832 5832
5827 5828 5828 5828 5828 5829 5830 5830 5830 5830 5829 5829 5829 5829 5829 5830 5830 5830 5830 5830 5831 5831 5831 5831 5831 5831 5831 5832 5831 5831 5832 5831 5831 5831 5831 5830 5830 5829 5829 5828 5828 5827 5827 5827 5827 5827 5828 5828 5828
5826 5826 5826 5826 5826 5827 5827 5827 5827 5827 5827 5826 5826 5827 5827 5827 5827 5827 5827 5827 5827 5828 5828 5828 5828 5828 5828 5828 5828 5828 5828 5828 5828 5828 5828 5827 5827 5826 5825 5825 5824 5824 5823 5823 5823 5824 5824 5824 5824
5823 5824 5824 5824 5824 5824 5824 5825 5825 5824 5824 5824 5824 5824 5824 5824 5824 5824 5824 5824 5824 5824 5824 5824 5824 5824 5824 5825 5825 5825 5825 5825 5825 5825 5824 5824 5824 5823 5822 5821 5821 5820 5820 5820 5820 5820 5820 5820 5821
5821 5821 5821 5822 5822 5822 5822 5822 5822 5821 5821 5821 5821 5821 5820 5820 5820 5820 5820 5820 5821 5821 5820 5821 5821 5821 5821 5821 5821 5821 5822 5821 5821 5821 5821 5821 5820 5819 5819 5818 5817 5817 5816 5816 5816 5816 5817 5817 5817
5818 5818 5818 5819 5819 5819 5819 5820 5819 5819 5819 5818 5818 5817 5817 5817 5817 5817 5817 5817 5817 5817 5817 5817 5817 5817 5817 5817 5818 5818 5818 5818 5818 5818 5818 5817 5817 5816 5815 5814 5814 5813 5813 5813 5813 5813 5813 5813 5813
5815 5816 5816 5815 5815 5815 5816 5816 5817 5816 5816 5815 5815 5814 5814 5814 5814 5814 5814 5814 5813 5813 5813 5814 5814 5814 5814 5814 5814 5814 5814 5815 5815 5815 5814 5814 5813 5812 5812 5811 5810 5810 5810 5809 5809 5809 5809 5809 5809
5812 5812 5812 5812 5811 5812 5812 5812 5814 5813 5812 5812 5812 5811 5811 5811 5811 5811 5810 5810 5810 5810 5810 5810 5810 5810 5810 5810 5810 5811 5811 5811 5811 5810 5810 5810 5809 5809 5808 5807 5806 5806 5806 5806 5805 5805 5805 5805 5804
5809 5809 5808 5808 5808 5809 5809 5809 5810 5809 5809 5809 5808 5808 5807 5807 5807 5807 5807 5806 5806 5806 5806 5806 5807 5807 5807 5807 5807 5806 5806 5806 5806 5806 5806 5805 5805 5805 5804 5804 5803 5802 5802 5801 5801 5801 5800 5800 5800
5805 5806 5805 5804 5804 5805 5805 5805 5806 5805 5805 5805 5804 5804 5804 5803 5803 5803 5802 5802 5802 5802 5802 5802 5802 5803 5803 5803 5802 5802 5802 5802 5802 5801 5801 5801 5800 5800 5800 5799 5798 5798 5797 5796 5796 5796 5795 5794 5794
5801 5802 5802 5801 5801 5801 5801 5801 5803 5802 5801 5800 5800 5800 5799 5799 5799 5799 5798 5798 5798 5798 5798 5798 5798 5798 5798 5798 5798 5797 5797 5797 5797 5796 5796 5796 5795 5795 5794 5794 5793 5792 5792 5791 5790 5790 5789 5788 5788
5797 5797 5797 5797 5796 5797 5797 5798 5799 5798 5798 5797 5796 5795 5795 5795 5795 5794 5794 5794 5794 5793 5793 5793 5793 5793 5793 5793 5792 5792 5792 5791 5791 5791 5791 5790 5790 5789 5789 5788 5787 5786 5786 5785 5784 5783 5783 5782 5781
5793 5793 5793 5792 5791 5792 5792 5793 5794 5794 5794 5793 5792 5791 5791 5790 5790 5790 5789 5789 5789 5788 5788 5787 5787 5787 5787 5787 5787 5787 5786 5786 5785 5785 5784 5784 5784 5783 5783 5782 5781 5781 5780 5779 5778 5777 5776 5775 5774
5788 5788 5788 5787 5787 5787 5787 5791 5790 5790 5789 5788 5787 5787 5786 5786 5785 5784 5784 5783 5783 5783 5782 5782 5782 5782 5781 5781 5781 5781 5780 5780 5779 5778 5778 5777 5777 5777 5776 5776 5775 5774 5773 5772 5771 5770 5768 5767 5766
5783 5783 5783 5783 5783 5782 5782 5786 5784 5784 5783 5783 5783 5782 5781 5781 5780 5779 5779 5778 5777 5777 5777 5777 5776 5776 5775 5775 5775 5774 5774 5773 5773 5772 5771 5771 5770 5770 5769 5769 5768 5767 5766 5765 5763 5762 5761 5760 5758